Regional Weather Roundup
Issued by NWS

Home | Current Version | Previous Version | Text Only | Print | Product List | Glossary On
Versions: 1 2 3 4 5 6 7 8 9 10 11 12 13 14 15 16 17 18 19 20 21 22 23 24 25 26 27 28 29 30 31 32 33 34 35 36 37 38 39 40 41 42 43 44 45 46 47 48 49 50
000
ASUS43 KDTX 220210
RWRMI
MICHIGAN HOURLY REGIONAL WEATHER ROUNDUP
NATIONAL WEATHER SERVICE DETROIT/PONTIAC MI
1000 PM EDT FRI JUL 21 2017

NOTE: "FAIR" INDICATES FEW OR NO CLOUDS BELOW 12,000 FEET WITH NO
SIGNIFICANT WEATHER AND/OR OBSTRUCTION TO VISIBILITY.

MIZ047>049-052>055-059>063-066>070-074>076-081>083-220300-
SOUTHEAST LOWER MICHIGAN

CITY           SKY/WX    TMP DP  RH WIND       PRES   REMARKS
ADRIAN         CLOUDY    77  70  79 CALM      29.96R
ALMA           PTCLDY    78  66  68 CALM      29.92F
ANN ARBOR      CLOUDY    74  70  87 CALM      29.95R
BAD AXE        CLOUDY    72  61  68 SE3       29.94S
CARO           CLOUDY    76  68  78 CALM      29.92F
DETROIT CITY   CLOUDY    78  68  71 CALM      29.95R
DETROIT        CLOUDY    80  69  69 S6        29.95R
FLINT          CLOUDY    76  68  76 S3        29.94F
GROSSE ILE     MOCLDY    78  70  77 CALM      29.94R
HILLSDALE      PTCLDY    73  70  88 CALM      29.96F
HOWELL         CLOUDY    77  68  75 CALM      29.96S

CITY           SKY/WX    TMP DP  RH WIND       PRES   REMARKS
JACKSON        CLOUDY    80  67  64 NE3       29.95F
LAMBERTVILLE   CLOUDY    74  69  82 CALM      29.95R
LANSING        CLOUDY    78  68  71 SE3       29.93F
LAPEER         FAIR      76  68  76 SW5       29.95S
MASON          CLOUDY    74  71  91 SE3       29.95F
MONROE         CLOUDY    75  70  86 CALM      29.94R
MT. CLEMENS    CLOUDY    74  67  79 S6        29.92F
PONTIAC        CLOUDY    80  67  64 CALM      29.95S
PORT HOPE        N/A     73  61  65 SE3       29.91F
PORT HURON     PTCLDY    72  68  88 CALM      29.94F
TRI CITIES     CLOUDY    81  70  69 SW6       29.92F
MIDLAND        FAIR      78  70  78 CALM      29.91S
TROY           CLOUDY    81  61  51 CALM      29.97S
SAGINAW HB     CLOUDY    79  68  69 SW6       29.92F
$$
MIZ043>046-050>051-056>058-064>065-071>073-077>080-220300-
SOUTHWEST LOWER MICHIGAN

CITY           SKY/WX    TMP DP  RH WIND       PRES   REMARKS
BATTLE CREEK   CLOUDY    80  69  69 E6        29.93F
BENTON HARBOR  CLOUDY    75  70  84 E5        29.90F
BIG RAPIDS     CLOUDY    73  65  78 CALM      29.91F
COLDWATER      CLOUDY    77  72  82 E5        29.93F
FREMONT        FAIR      73  70  91 SE5       29.90F
HOLLAND        CLOUDY    74  70  87 E7        29.90F
GRAND RAPIDS   CLOUDY    76  69  79 E6        29.91F
IONIA          FAIR      75  68  78 CALM      29.92F
KALAMAZOO      CLOUDY    79  68  69 N3        29.92F
LUDINGTON      LGT RAIN  70  70  99 CALM      29.89S
MARSHALL       CLOUDY    77  73  87 E5        29.93F
MOUNT PLEASANT CLOUDY    79  64  61 CALM      29.92F
MUSKEGON       CLOUDY    76  71  85 SE5       29.89F
SOUTH HAVEN    CLOUDY    75  72  90 E7        29.90F
$$
MIZ016>042-220300-
NORTHERN LOWER MICHIGAN

CITY           SKY/WX    TMP DP  RH WIND       PRES   REMARKS
ALPENA         CLOUDY    66  62  87 S3        29.94F
BEAVER ISLAND  CLOUDY    70  65  84 CALM      29.93R
BELLAIRE       MOCLDY    69  65  86 CALM      29.92R
CADILLAC       CLOUDY    74  65  75 CALM      29.94S
CHARLEVOIX     PTCLDY    73  63  70 CALM      29.95R
FRANKFORT      CLOUDY    74  68  81 CALM      29.91R
GAYLORD        PTCLDY    75  61  61 CALM      29.95F
GRAYLING       CLOUDY    71  64  78 CALM      29.96R
HARBOR SPRINGS CLOUDY    71  61  69 CALM      29.92S
HOUGHTON LAKE  CLOUDY    71  67  87 CALM      29.94F
MANISTEE       CLOUDY    73  69  87 CALM      29.90S
OSCODA         CLOUDY    71  63  76 SE5       29.93S
PELLSTON       CLOUDY    74  64  71 NE5       29.93S
ROGERS CITY    CLOUDY    71  64  76 CALM      29.93S
TRAVERSE CITY  CLOUDY    75  64  68 CALM      29.90S
$$
MIZ007>008-015-220300-
EASTERN UPPER MICHIGAN

CITY           SKY/WX    TMP DP  RH WIND       PRES   REMARKS
KINROSS        CLOUDY    66  56  70 W5        29.93F
MACKINAC ISLAN MOCLDY    69  56  62 NE6       29.93R
NEWBERRY       PTCLDY    64  62  91 CALM      29.93S
S. S. MARIE    CLOUDY    65  56  72 SW5       29.92R
MUNISING         N/A     67  63  87 SW3       29.89F
$$
MIZ004>006-011>014-085-220300-
CENTRAL UPPER MICHIGAN

CITY           SKY/WX    TMP DP  RH WIND       PRES   REMARKS
MANISTIQUE     CLOUDY    67  64  90 CALM      29.90S
ESCANABA       PTCLDY    71  68  90 SE3       29.89R
MENOMINEE      CLOUDY    77  69  76 CALM      29.91R
SAWYER-GWINN   CLEAR     68  61  77 NE3       29.91S
$$
MIZ001>003-009>011-084-220300-
WESTERN UPPER MICHIGAN

CITY           SKY/WX    TMP DP  RH WIND       PRES   REMARKS
IRON MOUNTAIN  CLEAR     73  65  75 S6        29.90R
HOUGHTON       PTCLDY    65  52  62 E10       29.89S
COPPER HARBOR    N/A     63  52  67 VRB6      29.89S
IRONWOOD       CLOUDY    76  64  66 S7        29.87S
$$

ABBREVIATIONS USED IN REMARKS
   TC - TEMPERATURE IN CELSIUS
  WCI - WIND CHILL INDEX
   HX - HEAT INDEX
  VSB - VISIBILITY





USA.gov is the U.S. government's official web portal to all federal, state and local government web resources and services.